Actual water levels and discharges of Vltava river

Vraňany

Date and time (UTC) H (cm) Q (m³/s)
19. 5. 2021 04:50 204 325
19. 5. 2021 04:00 205 327
19. 5. 2021 03:00 205 327
19. 5. 2021 02:00 205 327
19. 5. 2021 01:00 206 328
19. 5. 2021 00:00 203 323
18. 5. 2021 23:00 207 330
18. 5. 2021 22:00 214 341
18. 5. 2021 21:00 210 335
18. 5. 2021 20:00 203 323
18. 5. 2021 19:00 203 323
18. 5. 2021 18:00 201 320
18. 5. 2021 17:00 218 348
18. 5. 2021 16:00 217 346

H - water level, Q - discharge

Praha-Chuchle

Date and time (UTC) H (cm) Q (m³/s)
19. 5. 2021 04:50 105 319
19. 5. 2021 04:00 105 319
19. 5. 2021 03:00 105 319
19. 5. 2021 02:00 105 319
19. 5. 2021 01:00 105 319
19. 5. 2021 00:00 105 319
18. 5. 2021 23:00 105 319
18. 5. 2021 22:00 105 319
18. 5. 2021 21:00 106 324
18. 5. 2021 20:00 105 319
18. 5. 2021 19:00 105 319
18. 5. 2021 18:00 106 324
18. 5. 2021 17:00 106 324
18. 5. 2021 16:00 106 324

H - water level, Q - discharge
more information

VD Vrané nad Vltavou

Date and time (UTC) H (m n. m.) Q (m³/s)
19. 5. 2021 05:00 199.74 230.3
19. 5. 2021 04:00 199.75 231
19. 5. 2021 03:00 199.76 232
19. 5. 2021 02:00 199.76 233
19. 5. 2021 01:00 199.77 233
19. 5. 2021 00:00 199.76 233
18. 5. 2021 23:00 199.73 233
18. 5. 2021 22:00 199.70 231
18. 5. 2021 21:00 199.67 230
18. 5. 2021 20:00 199.63 234
18. 5. 2021 19:00 199.60 232
18. 5. 2021 18:00 199.56 236
18. 5. 2021 17:00 199.53 233

H - water level, Q - outflow

VD Štěchovice

Date and time (UTC) H (m n. m.) Q (m³/s)
19. 5. 2021 05:00 216.39 139
19. 5. 2021 04:00 216.66 139
19. 5. 2021 03:00 216.98 139
19. 5. 2021 02:00 217.52 139
19. 5. 2021 01:00 218.03 139
19. 5. 2021 00:00 218.51 160
18. 5. 2021 23:00 218.34 160
18. 5. 2021 22:00 218.20 160
18. 5. 2021 21:00 218.05 160
18. 5. 2021 20:00 218.02 160
18. 5. 2021 19:00 218.03 160
18. 5. 2021 18:00 218.09 160
18. 5. 2021 17:00 218.18 160

H - water level, Q - outflow

VD Slapy

Date and time (UTC) H (m n. m.) Q (m³/s)
19. 5. 2021 05:00 269.51 81.1
19. 5. 2021 04:00 269.53 57
19. 5. 2021 03:00 269.51 13
19. 5. 2021 02:00 269.47 0
19. 5. 2021 01:00 269.43 0
19. 5. 2021 00:00 269.39 203
18. 5. 2021 23:00 269.48 190
18. 5. 2021 22:00 269.47 190
18. 5. 2021 21:00 269.49 160
18. 5. 2021 20:00 269.48 149
18. 5. 2021 19:00 269.46 150
18. 5. 2021 18:00 269.45 129
18. 5. 2021 17:00 269.47 105

H - water level, Q - outflow

VD Kamýk

Date and time (UTC) H (m n. m.) Q (m³/s)
19. 5. 2021 05:00 282.72 -
19. 5. 2021 04:00 282.85 -
19. 5. 2021 03:00 283.00 -
19. 5. 2021 02:00 283.28 -
19. 5. 2021 01:00 283.54 -
19. 5. 2021 00:00 283.71 -
18. 5. 2021 23:00 283.46 -
18. 5. 2021 22:00 283.14 -
18. 5. 2021 21:00 283.00 -
18. 5. 2021 20:00 282.83 -
18. 5. 2021 19:00 282.68 -
18. 5. 2021 18:00 282.63 -
18. 5. 2021 17:00 282.71 -

H - water level, Q - outflow

VD Orlík

Date and time (UTC) H (m n. m.) Q (m³/s)
19. 5. 2021 05:00 349.57 0
19. 5. 2021 04:00 349.55 0
19. 5. 2021 03:00 349.53 0
19. 5. 2021 02:00 349.50 0
19. 5. 2021 01:00 349.49 0
19. 5. 2021 00:00 349.46 173
18. 5. 2021 23:00 349.49 196
18. 5. 2021 22:00 349.47 199
18. 5. 2021 21:00 349.48 235
18. 5. 2021 20:00 349.51 248
18. 5. 2021 19:00 349.48 257
18. 5. 2021 18:00 349.51 123
18. 5. 2021 17:00 349.50 24

H - water level, Q - outflow

VD Kořensko

Date and time (UTC) H (m n. m.) Q (m³/s)
19. 5. 2021 05:00 352.59 98.3
19. 5. 2021 04:00 352.60 100
19. 5. 2021 03:00 352.61 102
19. 5. 2021 02:00 352.62 105
19. 5. 2021 01:00 352.59 72
19. 5. 2021 00:00 352.50 59
18. 5. 2021 23:00 352.45 132
18. 5. 2021 22:00 352.48 139
18. 5. 2021 21:00 352.50 143
18. 5. 2021 20:00 352.54 151
18. 5. 2021 19:00 352.60 164
18. 5. 2021 18:00 352.59 72
18. 5. 2021 17:00 352.46 97

H - water level, Q - outflow

VD Hněvkovice I - přehrada

Date and time (UTC) H (m n. m.) Q (m³/s)
- - -

H - water level, Q - outflow

České Budějovice

Date and time (UTC) H (cm) Q (m³/s)
19. 5. 2021 04:50 118 42.9
19. 5. 2021 04:00 117 43
19. 5. 2021 03:00 117 43
19. 5. 2021 02:00 119 45
19. 5. 2021 01:00 116 42
19. 5. 2021 00:00 117 42
18. 5. 2021 23:00 117 42
18. 5. 2021 22:00 118 43
18. 5. 2021 21:00 117 43
18. 5. 2021 20:00 117 42
18. 5. 2021 19:00 116 43
18. 5. 2021 18:00 117 48
18. 5. 2021 17:00 130 55
18. 5. 2021 16:00 98 16

H - water level, Q - discharge
more information

Vyšší Brod

Date and time (UTC) H (cm) Q (m³/s)
19. 5. 2021 04:50 110 23
19. 5. 2021 04:00 111 24
19. 5. 2021 03:00 111 24
19. 5. 2021 02:00 111 24
19. 5. 2021 01:00 112 24
19. 5. 2021 00:00 112 24
18. 5. 2021 23:00 112 24
18. 5. 2021 22:00 111 24
18. 5. 2021 21:00 111 24
18. 5. 2021 20:00 111 24
18. 5. 2021 19:00 110 23
18. 5. 2021 18:00 110 23
18. 5. 2021 17:00 109 23
18. 5. 2021 16:00 110 23

H - water level, Q - discharge
Source data
Labe Basin Vltava Basin Povodí Moravy ČHMÚ